Regional Weather Roundup
Issued by NWS Sioux Falls, SD

Home | Current Version | Previous Version | Text Only | Print | Product List | Glossary On
Versions: 1 2 3 4 5 6 7 8 9 10 11 12 13 14 15 16 17 18 19 20 21 22 23 24 25 26 27 28 29 30 31 32 33 34 35 36 37 38 39 40 41 42 43 44 45 46 47 48 49 50
000
ASUS43 KFSD 291710
RWRFSD

WEATHER ROUNDUP FOR SE SOUTH DAKOTA/SW MINNESOTA/NW IOWA
NATIONAL WEATHER SERVICE SIOUX FALLS SD
1200 PM CDT THU SEP 29 2016

NOTE: "FAIR" INDICATES FEW OR NO CLOUDS BELOW 12,000 FEET WITH NO
SIGNIFICANT WEATHER AND OR OBSTRUCTIONS TO VISIBILITY.


SDZ038>040-050-052>070-291800-
SOUTHEAST SOUTH DAKOTA

CITY           SKY/WX    TMP DP  RH WIND       PRES   REMARKS
BROOKINGS      MOSUNNY   58  46  64 SE5       30.47F
CHAMBERLAIN    SUNNY     66  49  55 SE10      30.42F
HURON          SUNNY     62  48  60 S9        30.45F
MADISON        FAIR      59  48  67 SE3       30.47F
MITCHELL         N/A     63  48  58 S9        30.47F
SIOUX FALLS    MOSUNNY   62  48  60 VRB6      30.47F
WINNER         FAIR      66  45  46 S16       30.41F
YANKTON        MOSUNNY   61  48  63 CALM      30.44F
$$

MNZ071-072-080-081-089-090-097-098-291800-
SOUTHWEST MINNESOTA

CITY           SKY/WX    TMP DP  RH WIND       PRES   REMARKS
FAIRMONT       CLOUDY    53  50  89 NE7       30.49R
JACKSON        MOSUNNY   61  50  67 N6        30.47S
LUVERNE        MOSUNNY   59  46  63 N3        30.47F
MARSHALL       SUNNY     58  47  66 VRB3      30.49S
MONTEVIDEO     PTSUNNY   63  48  59 E6        30.50S
PIPESTONE      SUNNY     61  46  59 CALM      30.47S
REDWOOD FALLS  CLOUDY    60  49  66 E3        30.48F
TRACY          MOSUNNY   61  50  68 NE8       30.48F
WINDOM         SUNNY     61  50  67 NE7       30.47S
WORTHINGTON    MOSUNNY   60  50  69 VRB5      30.47F
$$

IAZ001>003-012>014-020>022-031-032-NEZ013-014-SDZ071-291800-
NORTHWEST IOWA

CITY           SKY/WX    TMP DP  RH WIND       PRES   REMARKS
CHEROKEE       SUNNY     62  54  74 CALM      30.45F
DENISON        SUNNY     61  52  72 NE7       30.43S
ESTHERVILLE    CLOUDY    55  53  93 N8        30.47S
LE MARS          N/A    N/A N/A N/A MISG        N/A
ORANGE CITY    MOSUNNY   61  52  72 CALM      30.46F
SHELDON        PTSUNNY   63  52  67 CALM      30.45S
SIOUX CITY     MOSUNNY   63  53  70 CALM      30.46F
SPENCER        MOSUNNY   63  52  67 E9        30.46S
STORM LAKE     SUNNY     63  52  67 VRB6      30.45S
$$

ABBREVIATIONS USED IN REMARKS
   TC - TEMPERATURE IN CELSIUS
  WCI - WIND CHILL INDEX
   HX - HEAT INDEX
  VSB - VISIBILITY





USA.gov is the U.S. government's official web portal to all federal, state and local government web resources and services.